Location: Neuvy Saint Sepulchre
(46.5953°N, 1.8122°E)
Time: 15:24:48
(UTC+02:00)

ISS - Pass Details

Date: 02 May 2026
Orbit: 414 x 424 km, 51.6° (Epoch: 21 May)

Event Time Altitude Azimuth Distance (km) Brightness Sun altitude
Exits shadow 04:02:52 26° 315° (NW) 868 -2.1 -21.2°
Maximum altitude 04:04:01 34° 355° (N) 718 -2.2 -21.1°
Drops below altitude 10° 04:07:08 10° 63° (ENE) 1,503 -0.1 -20.8°
Sets 04:09:22 0° 73° (ENE) 2,370 0.9 -20.6°
